Location: Spruce Knob
(38.6995°N, 79.5330°W)
Time: 20:54:10
(UTC-04:00)

A-11 Canister half - Pass Details

Date: 03 February 2022
Orbit: 1513 x 1686 km, 47.2° (Epoch: 26 May)

Event Time Altitude Azimuth Distance (km) Brightness Sun altitude
Rises 18:52:43 0° 294° (WNW) 4,741 12.6 -14.1°
Reaches altitude 10° 18:55:54 10° 298° (WNW) 3,736 11.8 -14.7°
Maximum altitude 19:05:12 62° 18° (NNE) 1,685 9.1 -16.5°
Enters shadow 19:11:17 24° 92° (E) 2,757 9.7 -17.6°
Drops below altitude 10° 19:14:19 10° 99° (E) 3,666 - -18.2°
Sets 19:17:24 0° 103° (ESE) 4,649 - -18.8°
